Location: Springfield
(37.2150°N, 93.2980°W)
Time: 08:12:05
(UTC-05:00)

Cosmos 2237 - Pass Details

Date: 19 April 2018
Orbit: 847 x 855 km, 70.8° (Epoch: 18 September)

Event Time Altitude Azimuth Distance (km) Brightness Sun altitude
Rises 20:09:52 0° 196° (SSW) 3,391 7.3 -4.3°
Reaches altitude 10° 20:12:18 10° 195° (SSW) 2,459 6.6 -4.7°
Maximum altitude 20:17:56 77° 110° (ESE) 872 4.2 -5.8°
Drops below altitude 10° 20:23:37 10° 25° (NNE) 2,475 6.6 -6.8°
Sets 20:26:04 0° 24° (NNE) 3,415 7.3 -7.3°
